Marrakech, Morocco

11:35 PM WET on February 09, 2016 (GMT +0000)
Menara

Weather History for GMMX - November, 2011

Change the Weather History Date:

Wednesday, November 2, 2011

  Actual Average Record
Temperature  
Mean Temperature 67 °F -  
Max Temperature 77 °F 70 °F 89 °F (2013)
Min Temperature 57 °F 49 °F 50 °F (2000)
Cooling Degree Days 2    
Growing Degree Days 17 (Base 50)    
Moisture  
Dew Point 53 °F    
Average Humidity 63    
Maximum Humidity 88    
Minimum Humidity 27    
Precipitation  
Precipitation 0.00 in 0.05 in - ()
Sea Level Pressure  
Sea Level Pressure 29.99 in    
Wind  
Wind Speed 4 mph ()    
Max Wind Speed 10 mph    
Max Gust Speed -    
Visibility 6.0 miles    
Events      
Averages and records for this station are not official NWS values.
T = Trace of Precipitation, MM = Missing Value Source: Averaged Metar Reports

Daily Weather History Graph

Daily Weather History Graph

Search for Another Location

Airport or City:

Trip Planner

Search our weather history database for the weather conditions in past years. The results will help you decide how hot, cold, wet, or windy it might be!

Date:

Astronomy

Nov. 02, 2011 Rise Set
Actual Time 6:48 AM WET 5:42 PM WET
Civil Twilight 6:23 AM WET 6:07 PM WET
Nautical Twilight 5:54 AM WET 6:36 PM WET
Astronomical Twilight 5:26 AM WET 7:04 PM WET
Moon 1:00 PM WET (11/2) No Moon Set
Length of Visible Light 11h 44m
Length of Day
10h 53m
Waxing Crescent, 48% of the Moon is Illuminated
Nov 2
Waxing Crescent
Nov 2
First Quarter
Nov 10
Full
Nov 18
Last Quarter
Nov 25
New

Hourly Weather History & Observations

Time (WET) Temp. Dew Point Humidity Pressure Visibility Wind Dir Wind Speed Gust Speed Precip Events Conditions
12:00 AM 63 °F 56 °F 70% 30.00 in 6 mi WSW 3.5 mph - -   Clear
12:00 AM 62.6 °F 55.4 °F 77% 30.04 in - WSW 3.5 mph - N/A   Clear
12:30 AM 62.6 °F 55.4 °F 77% 30.01 in - WNW 3.5 mph - N/A   Clear
1:00 AM 64.4 °F 57.2 °F 77% 30.01 in - Variable 2.3 mph - N/A   Clear
1:30 AM 62.6 °F 55.4 °F 77% 30.01 in - West 3.5 mph - N/A   Clear
2:00 AM 62.6 °F 57.2 °F 82% 30.01 in - SSW 3.5 mph - N/A   Clear
2:30 AM 62.6 °F 55.4 °F 77% 30.01 in - SSW 3.5 mph - N/A   Clear
3:00 AM 60 °F 55 °F 80% 30.00 in 6 mi SW 3.5 mph - -  
3:00 AM 60.8 °F 55.4 °F 82% 30.01 in - SSW 3.5 mph - N/A   Clear
3:30 AM 59.0 °F 55.4 °F 88% 30.01 in - SW 3.5 mph - N/A   Clear
4:00 AM 59.0 °F 55.4 °F 88% 30.01 in - SW 3.5 mph - N/A   Clear
4:30 AM 59.0 °F 53.6 °F 82% 30.01 in 6.2 mi SW 3.5 mph - N/A   Unknown
5:00 AM 59.0 °F 53.6 °F 82% 30.01 in 6.2 mi SW 4.6 mph - N/A   Unknown
5:30 AM 60.8 °F 53.6 °F 77% 30.01 in - SW 4.6 mph - N/A   Clear
6:00 AM 61 °F 55 °F 76% 29.97 in 6 mi SSE 3.5 mph - -  
6:00 AM 60.8 °F 53.6 °F 77% 30.01 in - SE 4.6 mph - N/A   Clear
6:30 AM 59.0 °F 53.6 °F 82% 30.01 in - Variable 2.3 mph - N/A   Clear
7:00 AM 57.2 °F 53.6 °F 88% 30.01 in - NNE 3.5 mph - N/A   Clear
7:30 AM 60.8 °F 55.4 °F 82% 30.01 in 6.2 mi ESE 3.5 mph - N/A   Scattered Clouds
8:00 AM 66.2 °F 55.4 °F 68% 30.01 in 5.0 mi ESE 2.3 mph - N/A   Scattered Clouds
8:11 AM 66 °F 55 °F 59% 29.96 in 5 mi East 3.5 mph - -   Partly Cloudy
8:30 AM 66.2 °F 55.4 °F 68% 30.01 in 5.0 mi East 4.6 mph - N/A   Scattered Clouds
9:00 AM 68.0 °F 55.4 °F 64% 29.98 in 5.0 mi ESE 4.6 mph - N/A   Scattered Clouds
10:00 AM 77.0 °F 55.4 °F 47% 30.01 in 6.2 mi Variable 2.3 mph - N/A   Scattered Clouds
11:00 AM 75.2 °F 53.6 °F 47% 30.01 in 6.2 mi WNW 9.2 mph - N/A   Mostly Cloudy
11:30 AM 75.2 °F 53.6 °F 47% 30.01 in 6.2 mi West 10.4 mph - N/A   Mostly Cloudy
12:00 PM 74 °F 51 °F 34% 29.94 in 6 mi WSW 8.1 mph - -   Scattered Clouds
12:00 PM 73.4 °F 51.8 °F 47% 30.01 in 6.2 mi WSW 9.2 mph - N/A   Mostly Cloudy
12:30 PM 75.2 °F 51.8 °F 44% 30.01 in 6.2 mi WNW 10.4 mph - N/A   Mostly Cloudy
1:00 PM 75.2 °F 50.0 °F 41% 30.01 in 6.2 mi WNW 9.2 mph - N/A   Mostly Cloudy
1:30 PM 77.0 °F 50.0 °F 39% 29.98 in 6.2 mi West 8.1 mph - N/A   Mostly Cloudy
2:00 PM 77.0 °F 50.0 °F 39% 29.98 in 6.2 mi West 6.9 mph - N/A   Mostly Cloudy
2:30 PM 77.0 °F 51.8 °F 41% 29.98 in 6.2 mi West 6.9 mph - N/A   Mostly Cloudy
3:00 PM 77 °F 49 °F 27% 29.92 in 6 mi NW 9.2 mph - -   Scattered Clouds
3:00 PM 77.0 °F 50.0 °F 39% 29.98 in 6.2 mi WNW 8.1 mph - N/A   Mostly Cloudy
3:30 PM 77.0 °F 50.0 °F 39% 29.98 in 6.2 mi West 8.1 mph - N/A   Mostly Cloudy
4:00 PM 77.0 °F 50.0 °F 39% 29.98 in 6.2 mi West 8.1 mph - N/A   Mostly Cloudy
4:30 PM 77.0 °F 50.0 °F 39% 29.98 in 6.2 mi West 8.1 mph - N/A   Mostly Cloudy
5:00 PM 75.2 °F 50.0 °F 41% 29.98 in 6.2 mi West 4.6 mph - N/A   Mostly Cloudy
5:30 PM 73.4 °F 50.0 °F 44% 29.98 in 6.2 mi West 4.6 mph - N/A   Mostly Cloudy
6:00 PM 70 °F 51 °F 40% 29.93 in 6 mi West 4.6 mph - -   Scattered Clouds
6:00 PM 69.8 °F 51.8 °F 53% 29.98 in 6.2 mi West 4.6 mph - N/A   Mostly Cloudy
6:30 PM 68.0 °F 51.8 °F 56% 29.98 in 6.2 mi West 3.5 mph - N/A   Mostly Cloudy
7:00 PM 68.0 °F 53.6 °F 60% 29.98 in 5.0 mi West 3.5 mph - N/A   Mostly Cloudy
7:30 PM 64.4 °F 53.6 °F 68% 29.98 in 5.0 mi WSW 3.5 mph - N/A   Mostly Cloudy
8:00 PM 64.4 °F 55.4 °F 73% 29.98 in 6.2 mi West 5.8 mph - N/A   Mostly Cloudy
8:30 PM 62.6 °F 53.6 °F 72% 29.98 in 6.2 mi West 4.6 mph - N/A   Mostly Cloudy
9:00 PM 62 °F 54 °F 68% 29.95 in 6 mi WSW 3.5 mph - -   Scattered Clouds
9:00 PM 62.6 °F 53.6 °F 72% 29.98 in 6.2 mi WSW 3.5 mph - N/A   Scattered Clouds
9:30 PM 62.6 °F 53.6 °F 72% 29.98 in 6.2 mi WSW 3.5 mph - N/A   Scattered Clouds
10:00 PM 62.6 °F 53.6 °F 72% 29.98 in 6.2 mi SW 5.8 mph - N/A   Scattered Clouds
10:30 PM 62.6 °F 55.4 °F 77% 29.95 in 6.2 mi SW 6.9 mph - N/A   Scattered Clouds
11:00 PM 62.6 °F 55.4 °F 77% 29.95 in - SW 5.8 mph - N/A   Clear
11:30 PM 59.0 °F 55.4 °F 88% 29.95 in - West 2.3 mph - N/A   Clear